Location: Central Falls
(41.8900°N, 71.3929°W)
Time: 04:07:55
(UTC+00:00)

Tiros 1 - Pass Details

Date: 08 December 2023
Orbit: 625 x 658 km, 48.4° (Epoch: 01 March)

Event Time Altitude Azimuth Distance (km) Brightness Sun altitude
Rises 08:56:39 0° 257° (WSW) 2,971 - -33.3°
Reaches altitude 10° 08:59:01 10° 261° (W) 2,065 - -32.9°
Maximum altitude 09:03:43 56° 340° (NNW) 783 - -32.0°
Exits shadow 09:06:08 27° 48° (NE) 1,262 8.9 -31.6°
Drops below altitude 10° 09:08:26 10° 59° (ENE) 2,076 10.4 -31.2°
Sets 09:10:50 0° 64° (ENE) 2,988 11.4 -30.7°
